| time (UTC) | temp F | wind direction | speed MPH | gust MPH | rain 1hr in | rain 24hr in | rain mn in | humidity % | barometer mb |
| 20260507025759 | 53 | 308 | 5.0 | 7.0 | 0.00 | 0.00 | 0.00 | 52 | 1004.7 |
| 20260507024259 | 53 | 308 | 4.0 | 6.0 | 0.00 | 0.00 | 0.00 | 52 | 1004.7 |
| 20260507022759 | 53 | 329 | 4.0 | 5.0 | 0.00 | 0.00 | 0.00 | 52 | 1004.7 |
| 20260507021259 | 54 | 313 | 3.0 | 5.0 | 0.00 | 0.00 | 0.00 | 52 | 1004.7 |
| 20260507015759 | 54 | 283 | 3.0 | 9.0 | 0.00 | 0.00 | 0.00 | 52 | 1004.7 |
| 20260507014259 | 54 | 254 | 8.0 | 11.0 | 0.00 | 0.00 | 0.00 | 52 | 1005.1 |
| 20260507012759 | 54 | 346 | 2.0 | 6.0 | 0.00 | 0.00 | 0.00 | 52 | 1004.7 |
| 20260507011259 | 54 | 277 | 3.0 | 7.0 | 0.00 | 0.00 | 0.00 | 52 | 1004.7 |
| 20260507005759 | 55 | 304 | 3.0 | 6.0 | 0.00 | 0.00 | 0.00 | 51 | 1004.7 |
| 20260507004259 | 55 | 312 | 5.0 | 9.0 | 0.00 | 0.00 | 0.00 | 52 | 1004.7 |
| 20260507002759 | 55 | 333 | 3.0 | 8.0 | 0.00 | 0.00 | 0.00 | 52 | 1004.7 |
| 20260507001259 | 55 | 302 | 4.0 | 8.0 | 0.00 | 0.00 | 0.00 | 52 | 1004.7 |
| 20260506235759 | 55 | 298 | 4.0 | 11.0 | 0.00 | 0.00 | 0.00 | 52 | 1004.7 |
| 20260506234259 | 56 | 315 | 6.0 | 8.0 | 0.00 | 0.00 | 0.00 | 52 | 1005.1 |
| 20260506232759 | 56 | 325 | 4.0 | 7.0 | 0.00 | 0.00 | 0.00 | 52 | 1005.1 |
| 20260506231259 | 56 | 311 | 6.0 | 9.0 | 0.00 | 0.00 | 0.00 | 52 | 1005.1 |
| 20260506225759 | 56 | 50 | 1.0 | 6.0 | 0.00 | 0.00 | 0.00 | 52 | 1005.1 |
| 20260506224259 | 56 | 321 | 5.0 | 6.0 | 0.00 | 0.00 | 0.00 | 53 | 1005.1 |
| 20260506222759 | 57 | 274 | 5.0 | 9.0 | 0.00 | 0.00 | 0.00 | 53 | 1005.4 |
| 20260506221259 | 58 | 268 | 6.0 | 10.0 | 0.00 | 0.00 | 0.00 | 54 | 1005.4 |
| 20260506215759 | 58 | 325 | 5.0 | 7.0 | 0.00 | 0.00 | 0.00 | 52 | 1005.8 |
| 20260506214259 | 59 | 329 | 3.0 | 9.0 | 0.00 | 0.00 | 0.00 | 53 | 1005.8 |
| 20260506212759 | 59 | 277 | 2.0 | 7.0 | 0.00 | 0.00 | 0.00 | 53 | 1005.8 |
| 20260506211259 | 59 | 291 | 3.0 | 9.0 | 0.00 | 0.00 | 0.00 | 53 | 1005.8 |
| 20260506205759 | 59 | 282 | 2.0 | 7.0 | 0.00 | 0.00 | 0.00 | 52 | 1005.8 |
| 20260506204259 | 60 | 313 | 4.0 | 6.0 | 0.00 | 0.00 | 0.00 | 51 | 1005.8 |
| 20260506202759 | 60 | 289 | 3.0 | 9.0 | 0.00 | 0.00 | 0.00 | 51 | 1005.8 |
| 20260506201259 | 61 | 275 | 4.0 | 10.0 | 0.00 | 0.00 | 0.00 | 51 | 1005.8 |
| 20260506195759 | 60 | 274 | 2.0 | 8.0 | 0.00 | 0.00 | 0.00 | 50 | 1006.1 |
| 20260506194259 | 60 | 323 | 1.0 | 5.0 | 0.00 | 0.00 | 0.00 | 50 | 1006.1 |
| 20260506192759 | 59 | 320 | 3.0 | 8.0 | 0.00 | 0.00 | 0.00 | 52 | 1006.1 |
| 20260506191259 | 59 | 315 | 3.0 | 8.0 | 0.00 | 0.00 | 0.00 | 50 | 1006.1 |
| 20260506185759 | 59 | 315 | 8.0 | 11.0 | 0.00 | 0.00 | 0.00 | 51 | 1006.4 |
| 20260506184259 | 58 | 296 | 2.0 | 7.0 | 0.00 | 0.00 | 0.00 | 50 | 1006.4 |
| 20260506182759 | 58 | 296 | 3.0 | 5.0 | 0.00 | 0.00 | 0.00 | 51 | 1006.1 |
| 20260506181259 | 57 | 261 | 3.0 | 8.0 | 0.00 | 0.00 | 0.00 | 52 | 1006.4 |
| 20260506175759 | 57 | 284 | 1.0 | 2.0 | 0.00 | 0.00 | 0.00 | 52 | 1006.1 |
| 20260506174259 | 57 | 238 | 1.0 | 8.0 | 0.00 | 0.00 | 0.00 | 51 | 1006.1 |
| 20260506172759 | 56 | 344 | 5.0 | 7.0 | 0.00 | 0.00 | 0.00 | 52 | 1006.4 |
| 20260506171259 | 57 | 335 | 4.0 | 7.0 | 0.00 | 0.00 | 0.00 | 50 | 1006.1 |
| 20260506165759 | 56 | 307 | 1.0 | 6.0 | 0.00 | 0.00 | 0.00 | 52 | 1006.1 |
| 20260506164259 | 56 | 325 | 3.0 | 5.0 | 0.00 | 0.00 | 0.00 | 52 | 1006.1 |
| 20260506162759 | 55 | 309 | 4.0 | 5.0 | 0.00 | 0.00 | 0.00 | 52 | 1006.1 |
| 20260506161259 | 55 | 290 | 1.0 | 5.0 | 0.00 | 0.00 | 0.00 | 52 | 1006.1 |
| 20260506155759 | 55 | 328 | 2.0 | 5.0 | 0.00 | 0.00 | 0.00 | 52 | 1006.4 |
| 20260506154259 | 54 | 292 | 2.0 | 3.0 | 0.00 | 0.00 | 0.00 | 52 | 1005.8 |
| 20260506152759 | 54 | 283 | 1.0 | 5.0 | 0.00 | 0.00 | 0.00 | 52 | 1006.1 |
| 20260506151259 | 54 | 311 | 0.0 | 3.0 | 0.00 | 0.00 | 0.00 | 52 | 1005.8 |
| 20260506145759 | 54 | 330 | 4.0 | 6.0 | 0.00 | 0.00 | 0.00 | 52 | 1006.1 |
| 20260506144259 | 54 | 314 | 0.0 | 1.0 | 0.00 | 0.00 | 0.00 | 52 | 1005.8 |
| 20260506142759 | 54 | 301 | 0.0 | 1.0 | 0.00 | 0.00 | 0.00 | 52 | 1005.8 |
| 20260506141259 | 54 | 299 | 1.0 | 2.0 | 0.00 | 0.00 | 0.00 | 52 | 1005.8 |
| 20260506135759 | 54 | 304 | 1.0 | 2.0 | 0.00 | 0.00 | 0.00 | 52 | 1005.4 |
| 20260506134259 | 54 | 328 | 0.0 | 2.0 | 0.00 | 0.00 | 0.00 | 52 | 1005.4 |
| 20260506132759 | 54 | 253 | 1.0 | 1.0 | 0.00 | 0.00 | 0.00 | 52 | 1005.1 |
| 20260506131259 | 54 | 251 | 1.0 | 2.0 | 0.00 | 0.00 | 0.00 | 52 | 1005.4 |
| 20260506125759 | 54 | 297 | 1.0 | 2.0 | 0.00 | 0.00 | 0.00 | 52 | 1005.1 |
| 20260506124259 | 54 | 283 | 1.0 | 1.0 | 0.00 | 0.00 | 0.00 | 52 | 1005.1 |
| 20260506122759 | 54 | 289 | 0.0 | 2.0 | 0.00 | 0.00 | 0.00 | 52 | 1005.1 |
| 20260506121259 | 54 | 283 | 1.0 | 2.0 | 0.00 | 0.00 | 0.00 | 51 | 1004.7 |
| 20260506115759 | 54 | 277 | 0.0 | 1.0 | 0.00 | 0.00 | 0.00 | 50 | 1004.7 |
| 20260506114259 | 54 | 256 | 0.0 | 2.0 | 0.00 | 0.00 | 0.00 | 52 | 1004.4 |
| 20260506112759 | 54 | 275 | 1.0 | 3.0 | 0.00 | 0.00 | 0.00 | 52 | 1004.4 |
| 20260506111259 | 54 | 257 | 1.0 | 2.0 | 0.00 | 0.00 | 0.00 | 51 | 1004.4 |
| 20260506105759 | 54 | 259 | 1.0 | 2.0 | 0.00 | 0.00 | 0.00 | 52 | 1004.4 |
| 20260506104259 | 54 | 243 | 1.0 | 3.0 | 0.00 | 0.00 | 0.00 | 53 | 1004.1 |
| 20260506102759 | 54 | 273 | 1.0 | 5.0 | 0.00 | 0.00 | 0.00 | 53 | 1004.1 |
| 20260506101259 | 54 | 271 | 2.0 | 2.0 | 0.00 | 0.00 | 0.00 | 52 | 1004.4 |
| 20260506095759 | 54 | 281 | 2.0 | 3.0 | 0.00 | 0.00 | 0.00 | 53 | 1004.4 |
| 20260506094259 | 54 | 294 | 2.0 | 3.0 | 0.00 | 0.00 | 0.00 | 54 | 1004.4 |
| 20260506092759 | 54 | 249 | 1.0 | 2.0 | 0.00 | 0.00 | 0.00 | 54 | 1004.4 |
| 20260506091259 | 54 | 279 | 1.0 | 2.0 | 0.00 | 0.00 | 0.00 | 53 | 1004.1 |
| 20260506085759 | 54 | 256 | 1.0 | 3.0 | 0.00 | 0.00 | 0.00 | 54 | 1004.4 |
| 20260506084259 | 54 | 276 | 2.0 | 5.0 | 0.00 | 0.00 | 0.00 | 54 | 1004.4 |
| 20260506072759 | 54 | 272 | 2.0 | 3.0 | 0.00 | 0.00 | 0.11 | 54 | 1004.1 |
| 20260506071259 | 54 | 296 | 2.0 | 3.0 | 0.00 | 0.00 | 0.11 | 54 | 1004.1 |
| 20260506061259 | 54 | 272 | 2.0 | 2.0 | 0.00 | 0.00 | 0.11 | 54 | 1003.4 |
| 20260506051259 | 55 | 283 | 0.0 | 2.0 | 0.00 | 0.00 | 0.11 | 54 | 1003.4 |
| 20260506044259 | 55 | 291 | 1.0 | 3.0 | 0.00 | 0.00 | 0.11 | 54 | 1003.0 |
| 20260506042759 | 55 | 284 | 1.0 | 2.0 | 0.00 | 0.00 | 0.11 | 54 | 1003.0 |
| 20260506041259 | 55 | 262 | 2.0 | 5.0 | 0.00 | 0.00 | 0.11 | 54 | 1002.7 |
| 20260506035759 | 55 | 258 | 2.0 | 5.0 | 0.00 | 0.00 | 0.11 | 54 | 1002.4 |
| 20260506034259 | 55 | 288 | 1.0 | 2.0 | 0.00 | 0.00 | 0.11 | 54 | 1002.4 |
| 20260506032759 | 55 | 284 | 1.0 | 5.0 | 0.00 | 0.00 | 0.11 | 53 | 1002.0 |
| 20260506031259 | 55 | 244 | 2.0 | 2.0 | 0.00 | 0.00 | 0.11 | 54 | 1002.4 |